Regional Weather Roundup
Issued by NWS

Home | Current Version | Previous Version | Text Only | Print | Product List | Glossary On
Versions: 1 2 3 4 5 6 7 8 9 10 11 12 13 14 15 16 17 18 19 20 21 22 23 24 25 26 27 28 29 30 31 32 33 34 35 36 37 38 39 40 41 42 43 44 45 46 47 48 49 50
000
ASUS43 KTOP 250959
RWRKS

WEATHER ROUNDUP FOR KANSAS
NATIONAL WEATHER SERVICE GOODLAND KS
500 AM CDT TUE APR 25 2017

NOTE:  "FAIR" INDICATES FEW OR NO CLOUDS BELOW 12,000 FEET WITH NO
SIGNIFICANT WEATHER AND/OR OBSTRUCTIONS TO VISIBILITY.

KSZ001>006-013>018-027>032-041>047-251100-
NORTHWEST KANSAS

CITY           SKY/WX    TMP DP  RH WIND       PRES   REMARKS
GOODLAND         N/A     47  41  80 MISG      29.46R
HAYS           PTCLDY    57  49  74 E13       29.39S
HILL CITY      CLOUDY    55  44  66 NE16G26   29.45R
RUSSELL        CLOUDY    60  48  64 SE14      29.39R
$$

KSZ061>065-074>080-084>089-251100-
SOUTHWEST KANSAS

CITY           SKY/WX    TMP DP  RH WIND       PRES   REMARKS
DODGE CITY     CLOUDY    51  48  89 S8        29.35F
ELKHART          N/A     55  37  50 W8          N/A
GARDEN CITY    CLEAR     48  45  89 NE7       29.36R
GREAT BEND     CLOUDY    56  49  77 E8        29.38S
$$

KSZ066>073-081>083-090>101-251100-
SOUTHEAST KANSAS

CITY           SKY/WX    TMP DP  RH WIND       PRES   REMARKS
CHANUTE        CLEAR     58  46  64 SE14      29.49F
COFFEYVILLE    CLEAR     59  47  64 SE15      29.48F
HUTCHINSON     CLOUDY    59  49  69 SE15G21   29.38F
MEDICINE LODGE   N/A     55  48  77 SE9       29.33F
NEWTON         CLOUDY    58  49  72 SE15      29.42F
PARSONS        PTCLDY    59  46  62 SE9G16    29.49F
WICHITA INTL   MOCLDY    59  50  72 SE13      29.38F
WICHITA JABRA  CLOUDY    59  49  69 SE15      29.39F
WINFIELD       CLOUDY    59  49  69 SE16G23   29.41F
$$

KSZ007>012-019>026-033>040-048>060-102>105-251100-
NORTHEAST KANSAS

CITY           SKY/WX    TMP DP  RH WIND       PRES   REMARKS
CONCORDIA      CLOUDY    52  47  83 NE6       29.44S
EMPORIA        CLOUDY    59  50  72 SE14G23   29.44F
LAWRENCE       CLOUDY    60  49  66 E7        29.50F
MANHATTAN      CLOUDY    62  50  64 N3        29.44R
OLATHE IND     CLOUDY    59  47  64 S9        29.54R
OLATHE EXE     CLOUDY    59  47  64 S8        29.54R
SALINA         PTCLDY    61  50  67 E7        29.39F
TOPEKA BILLARD CLOUDY    62  50  64 SE12      29.46F
TOPEKA FORBES  CLOUDY    63  49  60 SE9       29.47F
$$



USA.gov is the U.S. government's official web portal to all federal, state and local government web resources and services.